Weather History for Fort Benning, GA

Change the Weather History Date:

Monday, November 26, 2012

  Actual Average Record
Temperature  
Mean Temperature 48 °F -  
Max Temperature 70 °F 65 °F 82 °F (2001)
Min Temperature 25 °F 37 °F 25 °F (2012)
Degree Days  
Heating Degree Days 18    
Moisture  
Dew Point 28 °F    
Average Humidity 60    
Maximum Humidity 94    
Minimum Humidity 15    
Precipitation  
Precipitation 0.00 in - - ()
Sea Level Pressure  
Sea Level Pressure 30.19 in    
Wind  
Wind Speed 1 mph (SSE)    
Max Wind Speed 5 mph    
Max Gust Speed -    
Visibility 10 miles    
Events      
Averages and records for this station are not official NWS values.
T = Trace of Precipitation, MM = Missing Value Source: NWS Daily Summary

Daily Weather History Graph

Daily Weather History Graph

Search for Another Location

Airport:

Trip Planner

Search our weather history database for the weather conditions in past years. The results will help you decide how hot, cold, wet, or windy it might be!

Date:

Astronomy

Nov. 26, 2012 Rise Set
Actual Time 7:19 AM EST 5:35 PM EST
Civil Twilight 6:52 AM EST 6:01 PM EST
Nautical Twilight 6:22 AM EST 6:31 PM EST
Astronomical Twilight 5:53 AM EST 7:01 PM EST
Moon 4:24 PM EST (11/26) 5:32 AM EST (11/26)
Length of Visible Light 11h 08m
Length of Day
10h 15m
Waxing Gibbous, 97% of the Moon is Illuminated
Nov 26
Waxing Gibbous
Nov 28
Full
Dec 6
Last Quarter
Dec 13
New
Dec 20
First Quarter

Hourly Weather History & Observations

Time (EST) Temp. Windchill Dew Point Humidity Pressure Visibility Wind Dir Wind Speed Gust Speed Precip Events Conditions
12:55 AM 29.1 °F - 24.8 °F 84% 30.16 in 10.0 mi Calm Calm - N/A   Clear
1:55 AM 27.9 °F 24.0 °F 24.6 °F 88% 30.16 in 10.0 mi SE 3.5 mph - N/A   Clear
2:55 AM 27.9 °F - 25.3 °F 90% 30.16 in 10.0 mi Calm Calm - N/A   Clear
3:55 AM 27.0 °F - 24.6 °F 91% 30.17 in 10.0 mi Calm Calm - N/A   Clear
4:55 AM 26.6 °F - 25.0 °F 94% 30.19 in 10.0 mi Calm Calm - N/A   Clear
5:55 AM 26.1 °F - 24.1 °F 92% 30.21 in 10.0 mi Calm Calm - N/A   Clear
6:55 AM 25.3 °F - 23.7 °F 94% 30.23 in 10.0 mi Calm Calm - N/A   Clear
7:55 AM 26.2 °F - 24.6 °F 94% 30.25 in 10.0 mi Calm Calm - N/A   Clear
8:55 AM 32.9 °F - 29.3 °F 87% 30.25 in 10.0 mi Calm Calm - N/A   Clear
9:55 AM 43.0 °F - 31.1 °F 63% 30.26 in 10.0 mi Calm Calm - N/A   Clear
10:55 AM 53.1 °F - 33.4 °F 47% 30.26 in 10.0 mi Calm Calm - N/A   Clear
11:55 AM 61.3 °F - 30.7 °F 32% 30.24 in 10.0 mi Calm Calm - N/A   Clear
12:55 PM 65.5 °F - 27.7 °F 24% 30.20 in 10.0 mi Calm Calm - N/A   Clear
1:55 PM 68.7 °F - 25.2 °F 19% 30.17 in 10.0 mi SSE 3.5 mph - N/A   Clear
2:55 PM 69.1 °F - 22.6 °F 17% 30.15 in 10.0 mi WSW 4.6 mph - N/A   Scattered Clouds
3:55 PM 70.5 °F - 19.8 °F 15% 30.15 in 10.0 mi SSW 4.6 mph - N/A   Mostly Cloudy
4:55 PM 66.4 °F - 23.0 °F 19% 30.15 in 10.0 mi Calm Calm - N/A   Clear
5:55 PM 56.7 °F - 28.2 °F 34% 30.16 in 10.0 mi Calm Calm - N/A   Scattered Clouds
6:55 PM 50.9 °F - 31.6 °F 48% 30.16 in 10.0 mi SE 4.6 mph - N/A   Mostly Cloudy
7:55 PM 49.5 °F - 33.1 °F 53% 30.17 in 10.0 mi SE 4.6 mph - N/A   Mostly Cloudy
8:55 PM 47.3 °F - 34.7 °F 62% 30.18 in 10.0 mi Calm Calm - N/A   Mostly Cloudy
9:55 PM 45.7 °F 43.4 °F 34.9 °F 66% 30.18 in 10.0 mi SSE 4.6 mph - N/A   Mostly Cloudy
10:55 PM 46.8 °F - 35.4 °F 65% 30.18 in 10.0 mi SE 4.6 mph - N/A   Mostly Cloudy
11:55 PM 44.8 °F 42.4 °F 36.5 °F 73% 30.18 in 10.0 mi SE 4.6 mph - N/A   Overcast